Location: B?jaj?g
(11.7167°N, 92.6667°E)
Time: 19:50:55
(UTC+00:00)

CZ-3 Stage 3 - Visible Passes

Search period start: 28 November 2021 00:00
Search period end: 08 December 2021 00:00
Orbit: 495 x 35002 km, 30.9° (Epoch: 27 November)

Date Brightness Start Highest point End Pass type
(mag) Time Alt. Az. Time Alt. Az. Time Alt. Az.
28 Nov 6.9 02:52:47 10° NW 08:55:48 52° SSE 12:23:51 10° SE visible
29 Nov 11.2 10:59:45 10° W 11:49:49 16° W 13:12:05 10° W visible
30 Nov 7.8 06:54:59 10° WNW 08:10:48 71° WSW 16:33:13 14° SSE visible
01 Dec 7.2 03:25:52 10° NW 08:36:47 57° SSE 13:00:42 10° SE visible
03 Dec 7.7 07:30:24 10° WNW 08:49:11 58° WSW 17:04:31 17° S visible
04 Dec 7.5 03:59:04 10° NW 07:59:46 62° SSE 13:36:51 10° SE visible
06 Dec 9.6 08:07:13 10° WNW 09:25:38 46° W 14:11:16 10° WSW visible
06 Dec 7.7 17:24:52 10° SW 17:35:53 17° SSW 17:35:53 17° SSW visible
07 Dec 7.9 04:32:27 10° NW 05:06:46 80° NE 14:12:33 10° SE visible
